FW6934 Weather Reports


time (UTC)temp
C
wind
direction
speed
KPH
gust
KPH
rain 1hr
cm
rain 24hr
cm
rain mn
cm
humidity
%
barometer
mb
20260503204503 30 30 3.2 12.9 0.00 0.00 0.00 44 997.5
20260503204053 29 18 1.6 16.1 0.00 0.00 0.00 40 997.6
20260503203542 29 275 3.2 16.1 0.00 0.00 0.00 39 997.7
20260503203004 29 333 4.8 14.5 0.00 0.00 0.00 41 997.7
20260503202555 29 350 8.0 14.5 0.00 0.00 0.00 41 997.8
20260503202042 28 300 4.8 12.9 0.00 0.00 0.00 42 997.9
20260503201512 28 347 3.2 16.1 0.00 0.00 0.00 40 997.9
20260503201105 28 17 4.8 16.1 0.00 0.00 0.00 47 997.9
20260503200549 28 14 4.8 14.5 0.00 0.00 0.00 43 998.0
20260503200007 28 273 1.6 8.0 0.00 0.00 0.00 45 998.1
20260503195558 28 32 4.8 11.3 0.00 0.00 0.00 47 998.2
20260503195048 27 87 3.2 11.3 0.00 0.00 0.00 44 998.3
20260503194508 27 317 3.2 9.7 0.00 0.00 0.00 45 998.3
20260503194058 27 284 3.2 9.7 0.00 0.00 0.00 45 998.4
20260503193547 27 295 3.2 8.0 0.00 0.00 0.00 47 998.5
20260503193011 27 125 1.6 9.7 0.00 0.00 0.00 45 998.5
20260503192555 26 333 4.8 9.7 0.00 0.00 0.00 47 998.6
20260503192042 26 328 6.4 9.7 0.00 0.00 0.00 48 998.6
20260503191501 26 61 1.6 9.7 0.00 0.00 0.00 46 998.7
20260503191051 26 53 3.2 8.0 0.00 0.00 0.00 51 998.7
20260503190540 26 82 3.2 8.0 0.00 0.00 0.00 50 998.7
20260503190009 26 67 1.6 9.7 0.00 0.00 0.00 51 998.7
20260503185556 25 355 1.6 6.4 0.00 0.00 0.00 48 998.7
20260503185044 25 355 3.2 11.3 0.00 0.00 0.00 53 998.8
20260503184504 25 281 4.8 11.3 0.00 0.00 0.00 52 999.0
20260503184052 25 9 1.6 11.3 0.00 0.00 0.00 52 999.0
20260503183540 25 273 3.2 11.3 0.00 0.00 0.00 52 999.1
20260503183001 25 306 0.0 8.0 0.00 0.00 0.00 52 999.2
20260503182554 24 303 3.2 6.4 0.00 0.00 0.00 56 999.3
20260503182041 23 61 1.6 9.7 0.00 0.00 0.00 55 999.3
20260503181603 23 273 4.8 9.7 0.00 0.00 0.00 54 999.3
20260503181049 23 336 4.8 11.3 0.00 0.00 0.00 54 999.4
20260503180537 23 290 1.6 8.0 0.00 0.00 0.00 56 999.4
20260503180100 23 313 3.2 8.0 0.00 0.03 0.00 55 999.4
20260503175546 23 268 3.2 9.7 0.00 0.03 0.00 59 999.4
20260503175033 23 289 3.2 9.7 0.00 0.03 0.00 59 999.4
20260503174504 22 298 4.8 9.7 0.00 0.03 0.00 57 999.4
20260503174053 22 323 4.8 11.3 0.00 0.03 0.00 57 999.5
20260503173539 22 300 4.8 11.3 0.00 0.03 0.00 58 999.6
20260503173108 22 310 3.2 11.3 0.00 0.03 0.00 58 999.6
20260503172553 22 299 4.8 11.3 0.00 0.03 0.00 60 999.6
20260503172040 22 36 3.2 14.5 0.00 0.03 0.00 61 999.6
20260503171604 22 325 4.8 14.5 0.00 0.03 0.00 60 999.6
20260503171051 21 297 3.2 12.9 0.00 0.03 0.00 61 999.6
20260503170539 21 349 6.4 12.9 0.00 0.03 0.00 62 999.6
20260503170103 21 327 4.8 12.9 0.00 0.03 0.00 59 999.6
20260503150551 16 199 0.0 0.0 0.00 0.03 0.00 83 999.8
20260503131059 12 211 1.6 4.8 0.00 0.03 0.00 84 999.6
20260503130549 12 211 1.6 4.8 0.00 0.03 0.00 84 999.5
20260503110539 13 227 0.0 0.0 0.00 0.03 0.00 85 999.9
20260503081611 15 227 3.2 4.8 0.00 0.03 0.00 84 1000.3
20260503081050 14 227 3.2 4.8 0.00 0.03 0.00 84 1000.2
20260503080539 14 227 3.2 4.8 0.00 0.03 0.00 84 1000.2
20260503072547 14 227 3.2 8.0 0.00 0.03 0.00 86 1000.4
20260503072037 14 238 1.6 6.4 0.00 0.03 0.00 86 1000.4
20260503071558 14 238 3.2 6.4 0.00 0.03 0.00 86 1000.3
20260503071045 14 237 3.2 6.4 0.00 0.03 0.00 86 1000.3
20260503070536 14 244 3.2 6.4 0.00 0.03 0.00 85 1000.3
20260503055037 14 244 3.2 4.8 0.00 0.03 0.03 84 1000.4
20260503054600 14 245 3.2 4.8 0.00 0.03 0.03 84 1000.4
20260503054049 14 245 1.6 4.8 0.00 0.03 0.03 84 1000.4
20260503053537 14 234 1.6 4.8 0.00 0.03 0.03 84 1000.4
20260503053059 14 294 0.0 3.2 0.00 0.03 0.03 84 1000.5
20260503052547 15 294 1.6 3.2 0.00 0.03 0.03 83 1000.4
20260503052036 15 294 1.6 6.4 0.00 0.03 0.03 83 1000.5
20260503051559 15 294 3.2 6.4 0.00 0.03 0.03 83 1000.4
20260503051048 15 234 3.2 4.8 0.00 0.03 0.03 82 1000.5
20260503050539 15 234 0.0 0.0 0.00 0.03 0.03 83 1000.4
20260503050101 15 302 0.0 0.0 0.00 0.03 0.03 82 1000.4
20260503045547 15 302 0.0 0.0 0.00 0.03 0.03 82 1000.5
20260503045034 15 305 0.0 0.0 0.00 0.03 0.03 82 1000.3
20260503044557 15 305 0.0 0.0 0.00 0.03 0.03 82 1000.3
20260503044046 15 306 0.0 0.0 0.00 0.03 0.03 82 1000.3
20260503043534 15 308 0.0 0.0 0.00 0.03 0.03 81 1000.3
20260503043004 15 308 0.0 3.2 0.00 0.03 0.03 81 1000.4
20260503042555 15 308 0.0 4.8 0.00 0.03 0.03 81 1000.4
20260503042044 15 308 1.6 4.8 0.00 0.03 0.03 80 1000.4
20260503041505 16 275 3.2 4.8 0.00 0.03 0.03 80 1000.4
20260503041056 16 229 0.0 0.0 0.00 0.03 0.03 79 1000.5
20260503040544 16 229 0.0 0.0 0.00 0.03 0.03 79 1000.5
20260503040004 16 229 0.0 0.0 0.00 0.03 0.03 78 1000.4
20260503035555 16 229 0.0 0.0 0.00 0.03 0.03 78 1000.3
20260503035042 16 229 0.0 0.0 0.00 0.03 0.03 78 1000.2
20260503034503 16 229 0.0 0.0 0.00 0.03 0.03 78 1000.1
20260503034054 16 229 0.0 0.0 0.00 0.03 0.03 77 1000.0
20260503033545 16 229 0.0 0.0 0.00 0.03 0.03 77 999.9
20260503033103 16 229 0.0 0.0 0.00 0.03 0.03 77 999.9
20260503032551 17 229 0.0 0.0 0.00 0.03 0.03 76 999.8
20260503032042 17 229 0.0 0.0 0.00 0.03 0.03 76 999.8
20260503031502 17 229 0.0 0.0 0.00 0.03 0.03 75 999.7
20260503031052 17 229 0.0 0.0 0.00 0.03 0.03 75 999.7
20260503030541 17 229 0.0 4.8 0.00 0.03 0.03 75 999.8
20260503025550 17 229 0.0 6.4 0.00 0.03 0.03 74 999.8
20260503025039 17 229 3.2 6.4 0.00 0.03 0.03 74 999.9
20260503024602 17 254 3.2 6.4 0.00 0.03 0.03 74 999.7
20260503024054 17 182 1.6 12.9 0.00 0.03 0.03 73 999.8
20260503023538 18 242 4.8 12.9 0.00 0.03 0.03 73 999.9
20260503023101 18 196 3.2 11.3 0.00 0.03 0.03 72 999.9
20260503022549 18 266 4.8 20.9 0.00 0.03 0.03 72 999.9
20260503022037 18 263 4.8 20.9 0.00 0.03 0.03 72 999.9
20260503021600 18 296 3.2 11.3 0.00 0.03 0.03 71 1000.0
20260503021050 18 192 4.8 17.7 0.00 0.03 0.03 71 999.9
20260503020538 19 199 6.4 17.7 0.00 0.03 0.03 71 1000.0
20260503020005 19 202 3.2 6.4 0.00 0.03 0.03 73 999.9
20260503015556 19 188 1.6 4.8 0.00 0.03 0.03 74 999.7
20260503015045 19 188 0.0 1.6 0.00 0.03 0.03 73 999.5
20260503014504 19 188 0.0 1.6 0.00 0.03 0.03 73 999.4
20260503014055 19 188 0.0 1.6 0.00 0.03 0.03 73 999.3
20260503013544 19 188 0.0 3.2 0.00 0.03 0.03 71 999.4
20260503013057 19 188 0.0 3.2 0.00 0.03 0.03 71 999.4
20260503012546 19 188 0.0 3.2 0.00 0.03 0.03 71 999.4
20260503012033 20 188 0.0 3.2 0.00 0.03 0.03 72 999.5
20260503011556 20 188 0.0 3.2 0.00 0.03 0.03 71 999.4
20260503011043 20 15 0.0 3.2 0.00 0.03 0.03 71 999.4
20260503010531 20 15 0.0 4.8 0.00 0.03 0.03 71 999.4
20260503010104 20 15 0.0 4.8 0.00 0.03 0.03 69 999.4
20260503005554 19 15 0.0 0.0 0.00 0.03 0.03 70 999.4
20260503005040 19 15 0.0 0.0 0.00 0.03 0.03 71 999.3
20260503004501 19 15 0.0 0.0 0.00 0.03 0.03 73 999.2
20260503004051 19 15 0.0 0.0 0.00 0.03 0.03 70 999.2
20260503003540 19 15 0.0 0.0 0.00 0.03 0.03 71 999.2
20260503003029 19 15 0.0 0.0 0.00 0.03 0.03 71 999.2
20260503002601 20 15 0.0 0.0 0.00 0.03 0.03 72 999.3
20260503002049 20 15 0.0 0.0 0.00 0.03 0.03 69 999.3
20260503001509 20 15 0.0 0.0 0.00 0.03 0.03 68 999.3
20260503001100 20 15 0.0 0.0 0.00 0.03 0.03 69 999.2
20260503000547 19 15 0.0 3.2 0.00 0.03 0.03 68 999.3
20260503000006 20 15 0.0 3.2 0.00 0.03 0.03 70 999.4
20260502235557 20 15 0.0 3.2 0.00 0.03 0.03 67 999.4
20260502235046 19 15 0.0 4.8 0.00 0.03 0.03 68 999.5
20260502234505 19 15 1.6 4.8 0.00 0.03 0.03 67 999.5
20260502234056 20 10 0.0 1.6 0.00 0.03 0.03 67 999.6
20260502233544 20 10 0.0 8.0 0.00 0.03 0.03 68 999.6
20260502233005 19 9 1.6 8.0 0.00 0.03 0.03 67 999.8
20260502232555 20 344 3.2 6.4 0.00 0.03 0.03 67 999.8
20260502232043 19 288 3.2 6.4 0.00 0.03 0.03 66 999.9
20260502231510 19 9 3.2 9.7 0.00 0.03 0.03 66 1000.0
20260502231104 19 65 4.8 9.7 0.00 0.03 0.03 67 1000.0
20260502230549 19 351 0.0 6.4 0.00 0.03 0.03 68 1000.1
20260502230007 19 186 0.0 8.0 0.00 0.03 0.03 68 1000.2
20260502225554 18 277 1.6 8.0 0.00 0.03 0.03 65 1000.2
20260502225042 18 252 0.0 12.9 0.00 0.03 0.03 67 1000.2
20260502224502 18 290 6.4 12.9 0.00 0.03 0.03 68 1000.4
20260502224054 18 17 3.2 9.7 0.00 0.03 0.03 67 1000.5
20260502223544 19 16 1.6 9.7 0.00 0.03 0.03 69 1000.6
20260502223012 18 315 1.6 9.7 0.00 0.03 0.03 68 1000.7
20260502222556 18 332 4.8 9.7 0.00 0.03 0.03 68 1000.7
20260502222046 18 52 3.2 12.9 0.00 0.03 0.03 69 1000.8
20260502221502 18 275 8.0 12.9 0.00 0.03 0.03 69 1000.8
20260502221055 18 305 4.8 8.0 0.00 0.03 0.03 69 1000.8
20260502220541 17 275 3.2 6.4 0.00 0.03 0.03 71 1000.9
20260502220101 17 298 3.2 8.0 0.00 0.03 0.03 73 1001.1
20260502215550 17 325 1.6 8.0 0.00 0.03 0.03 70 1001.1
20260502215038 17 282 1.6 8.0 0.00 0.03 0.03 71 1001.2
20260502214605 17 306 1.6 9.7 0.00 0.03 0.03 72 1001.2
20260502214049 18 16 1.6 9.7 0.00 0.03 0.03 70 1001.2
20260502213539 18 24 3.2 12.9 0.00 0.03 0.03 70 1001.3
20260502213101 18 310 6.4 12.9 0.00 0.03 0.03 69 1001.3
20260502212550 18 297 4.8 14.5 0.00 0.03 0.03 70 1001.5
20260502212038 17 284 4.8 11.3 0.00 0.03 0.03 70 1001.5
20260502211600 17 259 3.2 9.7 0.00 0.03 0.03 70 1001.7
20260502211048 17 47 4.8 9.7 0.00 0.03 0.03 72 1001.7
20260502210535 16 19 3.2 11.3 0.00 0.03 0.03 72 1001.9
20260502210121 17 306 4.8 11.3 0.00 0.03 0.03 73 1001.8
20260502205546 17 30 0.0 12.9 0.00 0.03 0.03 71 1001.9
20260502205036 17 348 6.4 12.9 0.00 0.03 0.03 72 1002.0